Tracking 18673 objects as of 26-June-2017
HD Live streaming from Space Station
objects crossing your sky now

THORAD AGENA D DEB

Track THORAD AGENA D DEB now!
10-day predictions


NORAD ID: 4171
Int'l Code: 1969-082AP
Perigee: 768.6 km
Apogee: 822.2 km
Inclination: 70.1 °
Period: 100.6 minutes
Semi major axis: 7166 km
RCS: 0.0461 m2 (small)
Launch date: September 30, 1969
Source: United States (US)
Launch site: AIR FORCE WESTERN TEST RANGE (AFWTR)

Note: This is SATELLITE DEBRIS
Your satellite tracking list
Your tracking list is empty





NASA's NSSDC Master Catalog

Two Line Element Set (TLE):
1  4171U 69082AP  17176.47870742 +.00000159 +00000-0 +81646-4 0  9993
2  4171 070.0789 035.5956 0037440 017.7278 342.5143 14.31042554469515
Source of the keplerian elements: AFSPC